FENGYUN 1C DEB, 29765

Orbit data source: Space-Track

FENGYUN 1C DEB, 29765 is space debris in SSO originally from a launch on Mon, 10 May 1999 UTC launched from the Taiyaun Space Center, China (TSC). Fengyun 1C debris stems from the Chinese weather satellite Fengyun-1C, which was intentionally destroyed by a Chinese anti-satellite missile in 2007. This event dramatically increased the amount of space debris, with thousands of trackable fragments posing hazards to satellites and human spaceflight. The Fengyun 1C debris cloud has become a focal point in discussions about space sustainability and the need for international regulations to prevent the creation of new debris.

Loading next visibility...
Identifier
29765, 1999-025BF
Orbit
SSO
Country
Flag of CNCN / PRC
Related business
Manufacturer
Unknown
Mission
Spacecraft
Bus & Motor
Unknown
Mass
Unknown
Launch date (UTC)
1999-05-10 (27 years ago)
Launch vehicle
Unknown
Launch site
Taiyaun Space Center, China (TSC)
Object type
Payload
Rocket body
Debris
Shape & HBR
Unknown shape, 0.1 m
Radar Cross Section
Medium (>0.1 m² and <1 m²)

Expand to show TLE details & history
Last TLE update: 1 day ago

TLE from 1 day ago
0 FENGYUN 1C DEB
1 29765U 99025BF  26206.31644951  .00000030  00000-0  46670-4 0  9993
2 29765  98.8176 222.3253 0058580 184.9336 187.9788 14.02207190998986
Epoch: 2026-07-25T07:35Z
TLE epoch observation values (Epoch: 2026-07-25T07:35:41.237Z)
Latitude
12.62757°
Longitude
163.39183°
Altitude
930.449 km
Speed
7.366 km/s
True Right ascension
14h 41m 22s
True Declination
12° 33' 22"
Sunlit
Object was in daylight at epoch
Visualization orbit readout
Latitude
Unknown
Longitude
Unknown
Altitude
Unknown
Speed
Unknown
Apparent Right ascension
Unknown
Apparent Declination
Unknown
Sunlit
N/A
Visualization observer readout
Local Sidereal Time
00:11:12
Azimuth
Unknown
Elevation
Unknown
Doppler factor
Unknown
Orbital elements
Apogee altitude
925.887 km
Perigee altitude
840.812 km
Semi-major axis
7,261.487 km
Eccentricity
0.00586
Inclination
98.8176°
RAAN
222.3253°
Arg. of periapsis
184.9336°
True anomaly
187.88629°
Mean anomaly
187.9788°
Eccentric anomaly
187.93248°
Mean motion
3.50756 °/min
Orbital period
102.64 mins
BSTAR
0.00004667
Loading maneuver chart data...
Computing Atmospheric mass density...

Documentation

Showing up to 5 results
|